Погода в Руйиене

Погода в Руйиене : погода сейчас, прогноз погоды и архив. Всё, что Вы хотите узнать о погоде в Руйиене!

Поиск расширенной информации на нашем сайте:

Другие новости

Новости СМИ2

Главная страница сайта

Новости сайта

03.07.2017

Напоминаем, что на нашем специализированном сайте Метеоцентр.Азия вы можете получить высокодетализированные автоматические прогнозы погоды по пунктам России, СНГ и мира в авиационном формате (включающие направление и скорость ветра, видимость, явления погоды, количество и форму облачности, нижнюю и верхнюю границу облачности).


Погода в Руйиене - сегодня

Время (UTC), дата Ветер
(°,м/с) 
Видим.   Явления Облачность Т
(°С)
Тd
(°С)
f(%) Тe
(°С)
Pmin
(гПа)
dP
(гПа)
Po
(мм)
O2
(г/м3)
Тmin Tmax R s Состояние
почвы
18 08.02.18 120 (ЮВ) 2-4  н/о    н/о 
-8.5 -10.4 86 -10  1022.4  0.1  760  317           
21 08.02.18 200 (Ю) 1-2  н/о    н/о 
-8.6 -9.6 92 -8  1022.4  0.1  760  317           
00 09.02.18 тихо () -1  н/о    н/о 
-9.1 -9.7 95 -9  1022.8  0.4  760  318           
03 09.02.18 290 (З) 1-2  н/о    н/о 
-9.8 -10.4 95 -10  1022.9  760  319           
06 09.02.18 060 (СВ) 1-2  н/о    н/о 
-10.3 -10.9 95 -10  1023.2  0.3  761  320           
12 09.02.18 080 (В) 1-2  н/о    н/о 
-10.3 -11.3 92 -10  1024  0.1  761  320           
15 09.02.18 350 (С) 1-2  н/о    н/о 
-11 -12 92 -11  1023.6  -0.4  761  321           
18 09.02.18 070 (В) 3-4  н/о    н/о 
-11 -12.1 92 -14  1024.1  0.5  761  321           
09 22.02.18 060 (СВ) 1-1  н/о    н/о 
-18.5 -20.2 86 -19  1033.1  0.7  768  333           
21 23.04.18 130 (ЮВ) 4-7  н/о    н/о 
+9 +2.2 62 +8  1007.9  -2  750  292           
06 25.04.18 230 (ЮЗ) 4-8  н/о    н/о 
+6.8 +5.9 94 +5  1000  0.6  744  291           
18 29.04.18 050 (СВ) 2-2  н/о    н/о 
+11.7 +8.9 83 +12  1012.1  0.4  753  289           
21 06.05.18 310 (СЗ) 2-2  н/о    н/о 
+13.7 +2.1 45 +14  1024.7  -0.2  762  292           
15 21.05.18 070 (В) 4-6  н/о    н/о 
+23.3 +3.6 28 +23  1026.3  -1.8  764  283           
15 06.06.18 290 (З) 6-10  н/о    н/о 
+13 -0.2 40 +12  1017.9  -0.3  757  291           
15 14.06.18 200 (Ю) 3-5  н/о    н/о 
+23.8 +7.5 35 +24  1011.7  -0.4  753  278           
12 04.07.18 330 (СЗ) 2-4  н/о    н/о 
+20.1 +11.1 56 +23  1006.8  749  279           
00 24.07.18 060 (СВ) 2-2  н/о    н/о 
+20.1 +18.4 90 +35  1012.4  0.1  753  278           
15 05.09.18 050 (СВ) 3-5  н/о    н/о 
+18.9 +15.8 82 +30  1019.1  0.2  758  282           
21 06.09.18 080 (В) 2-2  н/о    н/о 
+16.1 +14.9 93 +25  1017.4  0.3  757  285           
15 07.09.18 110 (В) 3-5  н/о    н/о 
+24.6 +12.5 47 +29  1016.6  -0.4  757  277           
15 10.09.18 200 (Ю) 1-2  н/о    н/о 
+21.8 +14.2 62 +29  1020.9  -0.7  760  281           
18 10.09.18 200 (Ю) 1-1  н/о    н/о 
+13.4 +11 85 +17  1021.6  0.5  760  290           
00 14.09.18 200 (Ю) 2-3  н/о    н/о 
+9.6 +8.5 93 +10  1016.9  -0.2  756  293           
03 02.10.18 190 (Ю) 1-2  н/о    н/о 
+6.3 +4.2 86 +7  1005.4  -1.3  748  294           
Время (UTC), дата Ветер
(°,м/с) 
Видим.   Явления Облачность Т
(°С)
Тd
(°С)
f(%) Тe
(°С)
Pmin
(гПа)
dP
(гПа)
Po
(мм)
O2
(г/м3)
Тmin Tmax R s Состояние
почвы

Для получения пояснительной информации подведите курсор к названию столбца.

ПОГОДА в Руйиене - архив

Всё, что Вы хотите узнать о погоде в Руйиене - удобно и подробно!

Выберите нужную дату (начиная с 1 января 2015* года) и нажмите кнопку "Найти".
Будут отображены архивные сводки погоды по пункту Руйиена, начиная с указанной даты.


Отображать данные в формате CSV (для использования в таблицах Excel)


Внимание! Наш архив погоды предназначен исключительно для личного некоммерческого использования в познавательных целях. Если Вам необходимы официальные справки о состоянии погоды (для производственных, юридических, коммерческих и т.п. целей), обращайтесь в органы Росгидромета.

*Примечание: данная дата относится к архиву по метеостанциям СССР (Россия, СНГ, Балтия).
Архив по метеостанциям Зарубежной Европы и Азии (кроме Китая) хранится 10 дней, по другим регионам земного шара (Китай, Африка, Америка, Австралия, Океания) - 1 день.

Руйиена - район местоположения метеостанции


Название, широта, долгота, высота метеостанции:
Руйиена 57.9°ш. 25.4°д. 12 м над ур. моря [Латвия]

Дополнительная информация

В oтличие oт бoльшинства пoгoдных сайтoв мы публикуем пoдрoбную метеoинфoрмацию в детальнoм прoфессиoнальнoм фoрмате.

Характеристики температуры и влажнoсти вoздуха измеряются на высoте 2 м в тени вдали oт зданий и деревьев.
Скoрoсть ветра измеряется на высoте 10 м (на урoвне рoста челoвека скoрoсть ветра ниже в 1.5-2 раза). Если метеoстанция нахoдится в гoрoде или в лесу, тo скoрoсть ветра занижена на 2-4 м/с пo сравнению с oткрытым местoм. Скoрoсть ветра над акватoриями крупных рек и oзёр, а также на вершинах хoлмoв на 2-5 м/с выше, чем в oбычных услoвиях.
Атмoсфернoе давление в разных тoчках местнoсти мoжет значительнo oтличаться oт давления на метеoстанции, в зависимoсти oт услoвий рельефа (при пoдъёме на 10 м давление пoнижается примернo на 1 мм рт.ст.).